Hourly Data Report for March 12, 2006

TORONTO CITY
ONTARIO

43°40'00.000" N
79°24'00.000" W
112.50 m
6158355
71508
XTO

Download Data

Hourly Data (March 2006)
Hourly Data Report for March 12, 2006
TIME
LST
Temp Definition
°C
Dew Point Definition
°C
Rel Hum Definition
%
Precip. Amount Definition
mm

Wind Dir Definition
10's deg

Wind Spd Definition
km/h
Visibility Definition
km
Stn Press Definition
kPa
Hmdx Definition


Wind Chill Definition


Weather Definition


00:00 5.5 1.0 73   LegendMM LegendMM   100.47     LegendNANA
01:00 5.3 1.7 78   LegendMM LegendMM   100.42     LegendNANA
02:00 5.3 1.9 79   LegendMM LegendMM   100.33     LegendNANA
03:00 5.4 1.9 78   LegendMM LegendMM   100.20     LegendNANA
04:00 5.6 2.0 78   LegendMM LegendMM   100.07     LegendNANA
05:00 6.3 2.3 76   LegendMM LegendMM   100.03     LegendNANA
06:00 5.5 2.7 82   LegendMM LegendMM   100.07     LegendNANA
07:00 4.8 3.5 91   LegendMM LegendMM   99.95     LegendNANA
08:00 5.4 4.2 92   LegendMM LegendMM   100.07     LegendNANA
09:00 5.6 4.7 94   LegendMM LegendMM   100.03     LegendNANA
10:00 6.7 6.1 96   LegendMM LegendMM   100.03     LegendNANA
11:00 7.9 7.1 95   LegendMM LegendMM   100.04     LegendNANA
12:00 8.9 7.7 92   LegendMM LegendMM   100.05     LegendNANA
13:00 10.1 7.8 86   LegendMM LegendMM   100.01     LegendNANA
14:00 12.3 9.4 82   LegendMM LegendMM   99.95     LegendNANA
15:00 15.9 11.5 75   LegendMM LegendMM   99.97     LegendNANA
16:00 14.3 10.5 78   LegendMM LegendMM   100.01     LegendNANA
17:00 12.9 9.3 79   LegendMM LegendMM   100.05     LegendNANA
18:00 11.8 8.4 80   LegendMM LegendMM   100.10     LegendNANA
19:00 11.2 7.7 79   LegendMM LegendMM   100.19     LegendNANA
20:00 10.7 7.4 80   LegendMM LegendMM   100.19     LegendNANA
21:00 10.2 7.2 82   LegendMM LegendMM   100.22     LegendNANA
22:00 10.0 3.6 64   LegendMM LegendMM   100.15     LegendNANA
23:00 9.3 1.2 57   LegendMM LegendMM   100.15     LegendNANA

Notes on Data Quality.

Legend

  • E = Estimated
  • M = Missing
  • NA = Not Available*
  • [empty] = Indicates an unobserved value
Date modified: